Content
SEND FEEDBACK

Daily
Averages
Monthly
Summary
United States of America

SHELBYVILLE, INDIANA


Home > North America > United States > Indiana
Elevation: 775 feet     Latitude: 39 31N     Longitude: 085 46W

WEATHER
 
SELECT A DAY
Number of Records: 177,819;   Date Range: 10/15/98 - 12/18/14
 
SHARE

PRINT THIS DATA

[ ← Previous Day ]
WEATHER ALMANAC - DECEMBER 25, 2013
[ Next Day → ]
[ °C ]   °F
Weather ElementAverageHighLow
Temperature27 °F30.9 °F (7:53 pm)21.9 °F (1:53 am)
Dewpoint16.4 °F23 °F (9:53 pm)12 °F (1:53 am)
Humidity64.3 %72 % (9:53 pm)58 % (2:53 pm)
Barometer30.33 in30.47 in (1:53 am)30.21 in (11:53 pm)
Wind Speed11.8 mph18.4 mph (10:53 am)
Weather ElementAverage
Visibility10 mi
Wind DirectionSSW (199.2 °)

Weather ElementTotal
Precipitation---
Heating Degree Days38.6 (Base 65)
Averaged from 24 records on December 25, 2013
WEATHER CONDITIONS BREAKOUT
WIND DIRECTION BREAKOUT
WEATHER BY HOUR - DECEMBER 25, 2013
[ °C ]   °F
Local TimeTemperatureDewpointHumidityBarometerVisibilityWind DirectionWind SpeedGust SpeedPrecipitationEventsConditions
1:53 AM21.9 °F12.0 °F66 %30.47 in10.0 miSouth (180°)9.2 mphOvercast
2:53 AM21.9 °F12.9 °F68 %30.46 in10.0 miSSE (160°)10.4 mphPartly Cloudy
3:53 AM23.0 °F12.9 °F65 %30.46 in10.0 miSSE (160°)9.2 mphClear
4:53 AM23.0 °F12.9 °F65 %30.43 in10.0 miSouth (170°)12.7 mphMostly Cloudy
5:53 AM23.0 °F12.9 °F65 %30.42 in10.0 miSSE (160°)17.3 mphOvercast
6:53 AM24.1 °F12.9 °F62 %30.42 in10.0 miSouth (180°)15.0 mphOvercast
7:53 AM24.1 °F12.9 °F62 %30.40 in10.0 miSouth (180°)16.1 mphOvercast
8:53 AM24.1 °F12.9 °F62 %30.40 in10.0 miSouth (170°)11.5 mphOvercast
9:53 AM25.0 °F14.0 °F63 %30.40 in10.0 miSouth (180°)13.8 mphOvercast
10:53 AM26.1 °F14.0 °F60 %30.37 in10.0 miSouth (180°)18.4 mphOvercast
11:53 AM27.0 °F15.1 °F61 %30.34 in10.0 miSouth (180°)17.3 mphOvercast
12:14 PM27.0 °F15.1 °F61 %30.30 in10.0 miSSW (200°)16.1 mphOvercast
12:53 PM27.0 °F16.0 °F63 %30.32 in10.0 miSSW (210°)11.5 mphOvercast
1:53 PM28.0 °F17.1 °F63 %30.28 in10.0 miSSW (200°)10.4 mphOvercast
2:53 PM28.9 °F16.0 °F58 %30.27 in10.0 miSSW (210°)9.2 mphOvercast
3:53 PM30.0 °F17.1 °F59 %30.26 in10.0 miSSW (210°)9.2 mphOvercast
4:53 PM30.0 °F18.0 °F61 %30.27 in10.0 miSW (230°)8.1 mphOvercast
5:53 PM30.0 °F18.0 °F61 %30.26 in10.0 miSW (230°)10.4 mphOvercast
6:53 PM30.0 °F19.9 °F66 %30.26 in10.0 miSW (230°)9.2 mphOvercast
7:53 PM30.9 °F21.0 °F67 %30.25 in10.0 miSW (220°)9.2 mphOvercast
8:53 PM30.9 °F21.9 °F69 %30.25 in10.0 miWSW (250°)6.9 mphOvercast
9:53 PM30.9 °F23.0 °F72 %30.23 in10.0 miSW (230°)9.2 mphOvercast
10:53 PM30.9 °F23.0 °F72 %30.23 in10.0 miWSW (240°)10.4 mphOvercast
11:53 PM30.9 °F23.0 °F72 %30.21 in10.0 miSW (220°)11.5 mphOvercast
Hourly data recorded from KGEZ, located miles away from Shelbyville, Indiana







STORIES FROM OUR PARTNERS